www.pogodaiklimat.ru
ПОГОДА в Петистраске
Время
(UTC), дата
04 28.11
05 28.11
06 28.11
07 28.11
08 28.11
09 28.11
10 28.11
11 28.11
12 28.11
13 28.11
14 28.11
15 28.11
16 28.11
17 28.11
18 28.11
19 28.11
20 28.11
21 28.11
22 28.11
23 28.11
00 29.11
01 29.11
02 29.11
03 29.11
04 29.11
05 29.11
06 29.11
07 29.11
08 29.11
09 29.11
10 29.11
11 29.11
12 29.11
13 29.11
14 29.11
15 29.11
16 29.11
17 29.11
18 29.11
19 29.11
20 29.11
21 29.11
22 29.11
23 29.11
00 30.11
01 30.11
02 30.11
03 30.11
04 30.11
05 30.11
06 30.11
07 30.11
08 30.11
09 30.11
10 30.11
12 30.11
13 30.11
14 30.11
15 30.11
16 30.11
17 30.11
18 30.11
19 30.11
20 30.11
21 30.11
22 30.11
23 30.11
00 1.12
01 1.12
02 1.12
03 1.12
04 1.12
05 1.12
06 1.12
07 1.12
08 1.12
09 1.12
10 1.12
11 1.12
12 1.12
13 1.12
14 1.12
15 1.12
16 1.12
17 1.12
18 1.12
19 1.12
20 1.12
21 1.12
22 1.12
23 1.12
00 2.12
01 2.12
02 2.12
03 2.12
04 2.12
05 2.12
06 2.12
07 2.12
08 2.12
09 2.12
10 2.12
13 2.12
14 2.12
15 2.12
16 2.12
17 2.12
18 2.12
19 2.12
20 2.12
21 2.12
22 2.12
23 2.12
00 3.12
01 3.12
02 3.12
03 3.12
04 3.12
05 3.12
06 3.12
07 3.12
08 3.12
09 3.12
10 3.12
11 3.12
12 3.12
13 3.12
14 3.12
15 3.12
16 3.12
17 3.12
18 3.12
19 3.12
20 3.12
21 3.12
22 3.12
23 3.12
00 4.12
01 4.12
02 4.12
03 4.12
04 4.12
05 4.12
06 4.12
07 4.12
08 4.12
09 4.12
10 4.12
11 4.12
12 4.12
13 4.12
14 4.12
15 4.12
16 4.12
17 4.12
18 4.12
19 4.12
20 4.12
21 4.12
22 4.12
23 4.12
00 5.12
01 5.12
02 5.12
04 5.12
05 5.12
Ветер
(напр.,м/с)
Видим. Явления Облачность Т
(С)
Тd
(С)
f
(%)
Тe
(С)
Тes
(С)
Комфортность P
(гПа)
Po
(гПа)
Тmin
(С)
Tmax
(С)
R
(мм)
R24
(мм)
S
(см)
штиль 0 50 км ясно -11.7 -13.1 89
штиль 0 50 км ясно -12.2 -13.7 89
штиль 0
{1}
50 км ?/? -12.1 -13.6 89 -12.3 -9.4
штиль 0
{1}
50 км 6/0 -11.5 -12.9 89
штиль 0
{1}
50 км ?/? -12.0 -13.3 90
штиль 0
{1}
50 км ?/? -11.5 -12.9 89
штиль 0
{1}
н/о дымка ?/? -10.5 -11.6 92
штиль 0
{1}
50 км ?/? -8.9 -9.9 92
штиль 0
{1}
8000 м дымка 10/10 90 м -7.7 -8.6 93
ЮВ 1
{2}
100 м туман {дымка} ?/? -6.5 -7.3 94
Ю 1
{3}
1400 м в посл. час туман {дымка} ?/? -5.5 -6.2 95
Ю 1
{4}
2800 м слаб. снег {туман} 10/10 90 м -4.4 -5.1 95 0.0
Ю 1
{4}
5000 м в посл. час снег {туман} 10/10 60 м -2.9 -3.5 96 0.0
Ю 1
{4}
4100 м снежные зёрна {туман} 10/10 60 м -2.4 -2.8 97 0.0
ЮВ 1
{3}
1800 м в посл. час снег {туман} 10/10 90 м -2.1 -2.6 96 -12.3 -2.1 0.0
Ю 1
{4}
6000 м дымка 10/10 90 м -1.4 -1.9 96
ЮЗ 1
{4}
9000 м дымка 10/10 60 м -1.3 -1.6 98
З 1
{3}
35 км {дымка} 10/10 90 м -1.1 -1.5 97
ЮЗ 1
{2}
5000 м 10/10 150 м -1.4 -1.8 97
ЮЗ 1
{2}
4800 м в посл. час снег {дымка} 10/10 210 м -1.8 -2.3 96 0.0
З 1
{3}
3500 м слаб. снег {метель} 10/9 180 м -2.4 -3.0 96
З 1
{3}
15 км в посл. час снег {метель} 10/10 180 м -3.3 -4.1 94
ЮЗ 1
{2}
50 км {снег, метель} 10/10 150 м -3.7 -4.5 94
З 1
{2}
50 км {снег, метель} 10/10 120 м -4.0 -4.8 94
З 1
{2}
26 км {снег, метель} 10/10 90 м -4.3 -4.9 96
З 1
{2}
9000 м {снег, метель} 10/10 60 м -4.8 -5.4 96
штиль 0
{2}
3100 м дымка {снег} 10/10 90 м -5.4 -6.1 95 -5.4 -1.1
З 1
{1}
3400 м дымка 10/10 60 м -5.6 -6.4 94
штиль 0
{2}
3100 м дымка 10/10 60 м -5.8 -6.6 94
штиль 0
{1}
4200 м дымка 10/10 90 м -6.3 -7.1 94
штиль 0
{1}
14 км 10/10 60 м -6.2 -7.0 94
штиль 0
{1}
50 км 8/0 -6.6 -7.6 93
штиль 0
{1}
50 км {дымка} ясно -6.9 -7.8 93
штиль 0
{1}
50 км ясно -8.4 -9.5 92
штиль 0
{1}
50 км ясно -9.6 -10.8 91
штиль 0
{1}
50 км ясно -10.6 -11.9 90
штиль 0
{1}
50 км ясно -11.2 -12.6 89
штиль 0
{1}
50 км ясно -11.8 -13.3 89
штиль 0
{1}
50 км ясно -12.3 -13.8 89 -12.3 -5.4
штиль 0
{1}
50 км ясно -12.1 -13.6 89
СВ 1
{2}
50 км ясно -12.3 -13.8 89
В 1
{1}
50 км ясно -11.7 -13.1 89
В 1
{2}
50 км ясно -11.7 -13.2 89
В 1
{1}
50 км ясно -11.4 -12.9 89
штиль 0
{2}
50 км 10/10 360 м -9.4 -10.6 91
штиль 0
{2}
50 км 10/9 420 м -7.1 -8.1 93
ЮЗ 1
{2}
6000 м слаб. ливневой снег 10/10 300 м -4.5 -5.3 94 0.1
ЮЗ 1
{2}
50 км в посл. час снег {ливн. снег, метель} 10/10 270 м -4.3 -5.1 94 0.0
ЮЗ 1
{3}
50 км {ливн. снег, метель} 10/10 240 м -4.2 -4.9 95
штиль 0
{3}
50 км {ливн. снег, метель} 10/10 330 м -4.8 -5.5 95
Ю 1
{2}
50 км {ливн. снег, метель} 10/1 400 м -4.5 -5.2 95 -3.9
Ю 1
{3}
3000 м слаб. снег 10/1 180 м -3.9 -4.6 95 0.1
ЮВ 1
{2}
5000 м в посл. час снег {ливн. снег} 10/10 210 м -3.2 -3.8 96
Ю 1
{4}
50 км {ливн. снег, снег} 10/10 150 м -2.0 -2.6 96
Ю 1
{3}
50 км {ливн. снег, снег} 10/10 270 м -2.2 -2.9 95
Ю 1
{3}
50 км 10/10 240 м -1.4 -2.3 94
ЮВ 1
{3}
40 км 10/10 180 м -1.1 -1.9 94
Ю 2
{5}
50 км 10/10 240 м -0.9 -1.8 94
ЮВ 1
{4}
4300 м слаб. снег 10/9 210 м -1.0 -1.7 95 0.0
Ю 2
{5}
30 км в посл. час снег {метель} 10/10 240 м -0.6 -1.4 94 0.0
Ю 3
{5}
50 км {снег, метель} 10/8 240 м -0.3 -1.3 93
Ю 2
{6}
50 км {снег, метель} 10/10 210 м -0.3 -1.2 94
Ю 2
{6}
50 км 10/10 210 м 0.0 -0.9 94
Ю 2
{5}
12 км 10/10 180 м +0.2 -0.7 94
Ю 1
{3}
20 км в посл. час снег {метель} 10/9 180 м +0.2 -0.6 94
Ю 2
{4}
5000 м слаб. ливневой снег 10/10 180 м +0.1 -0.7 94
Ю 1
{3}
11 км в посл. час снег {ливн. снег} 10/10 180 м 0.0 -0.6 96
штиль 0
{3}
2000 м слаб. ливневой снег 10/8 150 м -0.1 -0.8 95 0.1
штиль 0
{1}
2000 м слаб. снег ?/? -0.4 -0.9 96 0.4
З 1
{1}
7000 м слаб. снег ?/? -0.7 -1.3 96 0.2
СЗ 1
{3}
50 км в посл. час снег {ливн. снег} 10/3 180 м -1.5 -2.2 95
З 1
{3}
50 км {ливн. снег, снег} 10/3 240 м -3.1 -4.2 92
З 1
{2}
50 км {ливн. снег, снег} 3/3 210 м -4.3 -5.1 94
СЗ 1
{2}
50 км {ливн. снег, снег} ясно -4.7 -5.5 94 -5.3 +0.2
З 2
{3}
40 км ясно -5.7 -6.8 92
З 1
{3}
50 км ясно -6.6 -7.8 91
СЗ 1
{3}
50 км ясно -6.2 -7.6 90
З 2
{3}
50 км ясно -6.4 -7.7 90
СЗ 1
{3}
50 км ясно -5.7 -7.1 90
СЗ 2
{4}
50 км ясно -5.3 -6.8 89
штиль 0
{3}
50 км ясно -7.3 -8.9 88
СЗ 1
{1}
50 км ясно -9.2 -10.2 92
штиль 0
{1}
50 км ясно -10.4 -11.5 92
штиль 0
{1}
50 км ясно -12.4 -14.0 88
З 1
{1}
50 км ясно -11.4 -12.7 90
СЗ 1
{2}
50 км ясно -9.8 -11.1 90 -12.7
штиль 0
{3}
50 км ясно -10.3 -11.8 89
штиль 0
{1}
50 км ясно -11.9 -13.4 89
штиль 0
{1}
50 км ясно -13.0 -14.8 86
штиль 0
{1}
50 км ясно -13.6 -15.3 87
штиль 0
{1}
50 км ясно -14.3 -16.1 86
штиль 0
{1}
50 км ясно -13.8 -15.5 87
штиль 0 50 км ясно -13.5 -15.2 87
штиль 0
{1}
50 км ясно -13.1 -14.7 88
В 1
{1}
50 км ясно -13.9 -15.6 87
штиль 0
{1}
50 км ясно -13.6 -15.3 87
В 1
{1}
50 км ясно -13.0 -14.5 88
В 1
{2}
50 км 4/3 -10.0 -11.0 92 -14.4 -7.7
В 1
{2}
50 км 9/9 -8.6 -9.8 91
Ю 1
{2}
50 км 10/0 -6.0 -7.1 92
Ю 1
{3}
50 км ясно -5.0 -6.1 92
Ю 1
{3}
50 км ясно -4.3 -5.5 91
Ю 1
{4}
50 км 10/10 210 м -0.9 -1.7 94
Ю 2
{5}
50 км 10/10 240 м -0.4 -1.3 94
Ю 2
{6}
50 км 10/6 270 м -0.3 -1.4 92
Ю 2
{6}
50 км 10/9 270 м -0.2 -1.5 91
Ю 4
{9}
50 км 10/9 210 м +0.4 -0.7 92
Ю 3
{11}
12 км в посл. час осадки {ливн. снег, метель} 10/10 210 м -0.1 -1.1 93 -10.3 +0.4
Ю 2
{10}
2000 м слаб. ливневой снег ?/? -0.7 -1.3 96 0.2
Ю 2
{7}
8000 м в посл. час снег {ливн. снег} 10/1 270 м -1.5 -2.4 94
Ю 2
{6}
50 км {ливн. снег, снег} 10/10 270 м -0.5 -1.5 93
Ю 2
{6}
50 км {ливн. снег, снег} 10/10 270 м +0.5 -0.6 92
Ю 2
{7}
40 км {ливн. снег, снег} 10/10 270 м +0.9 -0.3 92
Ю 2
{9}
40 км {ливн. снег, снег} 10/10 400 м +1.1 -0.4 90
Ю 3
{10}
30 км 10/1 480 м +1.4 -0.4 88
Ю 3
{9}
35 км 10/1 360 м +1.6 -0.3 87
Ю 3
{9}
40 км 10/4 450 м +1.5 -0.3 88
Ю 4
{8}
50 км 10/10 1500 м +1.1 -1.0 86
ЮВ 4
{8}
50 км 10/10 330 м +1.0 -0.6 89
Ю 3
{8}
50 км 10/8 360 м +1.2 -0.5 88 -1.5 +1.6
Ю 2
{7}
15 км 10/9 330 м +1.1 -0.5 89
Ю 3
{7}
27 км в посл. час снег {ливн. снег} 10/5 240 м +1.1 -0.2 91 0.0
Ю 2
{6}
23 км {ливн. снег, снег} 10/10 270 м +1.2 -0.2 90
Ю 3
{8}
8000 м ливневой дождь {снег} 10/9 330 м +1.2 -0.4 89
Ю 3
{8}
29 км в посл. час снег {ливн. снег} 10/9 450 м +1.4 -0.8 85
Ю 2
{7}
28 км в посл. час снег {ливн. снег} 10/10 420 м +1.2 -1.0 85 0.0
Ю 2
{7}
5000 м слаб. ливневой снег 10/1 120 м +0.6 -0.3 94 0.1
Ю 5
{10}
6000 м слаб. снег 10/4 120 м +0.8 -0.1 94 0.3
Ю 3
{8}
40 км в посл. час снег {ливн. снег} 10/10 360 м +0.7 -0.7 90
Ю 3
{9}
50 км {ливн. снег, снег} 10/10 300 м +0.6 -0.9 90
Ю 3
{8}
19 км {ливн. снег, снег} 10/10 270 м +0.6 -1.0 89
Ю 4
{8}
4800 м слаб. снег 10/10 210 м +0.1 -0.6 95 -0.0 +1.5 0.1
ЮВ 3
{9}
10 км в посл. час снег {метель} 10/10 240 м 0.0 -1.2 92
ЮВ 3
{9}
10 км в посл. час снег {ливн. снег} 10/10 240 м -0.3 -1.5 92
ЮВ 4
{9}
8000 м в посл. час снег {ливн. снег} 10/10 300 м -0.5 -2.1 89 0.0
ЮВ 3
{8}
10 км в посл. час снег {ливн. снег} 10/10 150 м -0.6 -1.5 94 0.0
ЮВ 3
{8}
28 км {ливн. снег, снег} 10/4 180 м -0.9 -1.9 93
ЮВ 3
{6}
30 км {ливн. снег, снег} 10/10 210 м -1.0 -2.2 92
ЮВ 3
{6}
30 км 10/10 150 м -1.1 -2.1 93
ЮВ 3
{5}
50 км 10/10 210 м -1.1 -2.3 92
ЮВ 3
{6}
40 км 10/10 210 м -1.1 -2.1 93
ЮВ 3
{6}
45 км 10/10 180 м -0.9 -1.9 93
ЮВ 3
{6}
35 км 10/10 150 м -1.0 -1.9 94
ЮВ 3
{6}
30 км 10/10 150 м -1.0 -1.9 94 -1.1 +0.2
ЮВ 2
{5}
23 км 10/10 120 м -1.1 -2.0 94
ЮВ 3
{6}
18 км 10/10 120 м -1.2 -2.0 94
ЮВ 2
{5}
20 км 10/10 150 м -1.2 -2.1 94
ЮВ 2
{6}
10 км слаб. ливневой снег 10/10 180 м -1.1 -2.0 94 0.0
ЮВ 2
{4}
н/о слаб. снег 10/10 210 м -1.2 -2.0 94 0.2
В 2
{4}
2300 м слаб. снег ?/? -1.3 -2.1 94 0.2
В 2
{4}
2400 м слаб. снег ?/? -1.3 -2.1 94 0.4
В 2
{3}
4600 м слаб. снег 10/8 180 м -1.4 -2.1 95 0.2
ЮВ 2
{4}
35 км в посл. час снег {метель} 10/10 180 м -1.2 -2.0 94
ЮВ 2
{4}
26 км {снег, метель} 10/10 120 м -1.1 -1.8 95
ЮВ 2
{4}
25 км {снег, метель} 10/10 150 м -1.0 -1.8 94
ЮВ 2
{5}
23 км {снег, метель} 10/10 150 м -0.9 -1.6 95 -1.5 -0.9
ЮВ 3
{5}
45 км 10/10 150 м -0.7 -1.5 94
ЮВ 2
{4}
25 км 10/10 120 м -0.7 -1.4 95
В 2
{4}
18 км в посл. час снег 10/10 150 м -0.6 -1.4 94 0.0
ЮВ 1
{4}
12 км {снег, метель} 10/10 90 м -0.7 -1.4 95
ЮВ 1
{4}
2200 м слаб. ливневой снег 10/10 60 м -0.7 -1.3 96 0.1
В 1
{3}
2300 м слаб. снег 10/9 150 м -0.9 -1.4 96 0.5
В 1
{2}
2200 м слаб. снег ?/? -1.1 -1.6 96 0.6
В 1
{2}
1500 м слаб. снег ?/? -1.2 -1.7 96 0.7
В 1
{2}
30 км в посл. час снег {метель} 10/4 120 м -1.4 -1.9 96
В 1
{2}
40 км {снег, метель} 10/10 120 м -1.4 -1.9 96
Местоположение метеостанции Петистраск (Швеция): широта 64.57 долгота 19.70 высота над уровнем моря 258 м.
В архиве по умолчанию представлена погода в Петистраске за последнюю неделю. Архивные данные за месяц целиком и за предыдущие месяцы, начиная с января 2011 года, Вы можете получить, выбрав интересующий диапазон дат из раскрывающегося списка и нажав кнопку "Найти!".
*Определитесь, кто Вы:
Внимание! Время в таблицах - всемирное. Для получения местного времени необходимо прибавить поправку, которая равна 1 ч.
Смотрите также архив погоды в соседних городах и на ближайших метеорологических станциях:
Партнеры нашего сайта:      
Пояснения к столбцам:
  • Ветер - указаны скорость ветра в м/с - средняя за 10 мин, порывы в срок и между сроками (в фигурных скобках) и направление, откуда дует ветер: С - северный,
  • СВ - северо-восточный, В - восточный, ЮВ - юго-восточный, Ю - южный, ЮЗ - юго-западный, З - западный, СЗ - северо-западный.
  • Видимость - горизонтальная дальность видимости в метрах или километрах. При видимости от 1 до 10 км при отсутствии осадков обычно наблюдается дымка, при ухудшении видимости до 1 км и менее - туман. В сухую погоду видимость может ухудшаться дымом, пылью или мглою.
  • Явления - указаны атмосферные явления, наблюдавшиеся в срок или в последний час перед сроком; фигурными скобками обозначены явления, наблюдавшиеся между сроками (за 1-3 часа до срока); квадратными скобками обозначены град или гололедные отложения с указанием их диаметра в мм.
  • Облачность - указаны через наклонную черту общая и нижняя облачность в баллах и высота нижней границы облаков в метрах; квадратными скобками обозначены формы облаков: Ci - перистые, Cs - перисто-слоистые, Cc - перисто-кучевые, Ac - высококучевые, As - высокослоистые, Sc - слоисто-кучевые, Ns - слоисто-дождевые, Cu - кучевые, Cb - кучево-дождевые. Подробнее классификацию облаков см. в Атласе облаков (PDF).
  • T - Температура воздуха - температура, измеренная на высоте 2 м над землей.
  • Td - Температура точки росы - температура, при понижении до которой содержащийся в воздухе водяной пар достигнет насыщения.
  • f - Относительная влажность воздуха - влажноcть воздуха, измеренная на высоте 2 м над землей.
  • Te - Эффективная температура - температура, которую ощущает одетый по сезону человек в тени. Характеристика душности погоды. При расчете учитывается влияние влажности воздуха и скорости ветра на теплоощущения человека.
  • Tes - Эффективная температура на солнце - температура, которую ощущает человек, с поправкой на солнечный нагрев. Характеристика знойности погоды. Зависит от высоты солнца над горизонтом, облачности и скорости ветра. Ночью, в пасмурную погоду, а также при ветре 12 м/с и более поправка равна нулю.
  • P - Атмосферное давление - приведенное к уровню моря атмосферное давление.
  • Po - Атмосферное давление - измеренное на уровне метеостанции атмосферное давление.
  • Tmin - Минимальная температура - минимум температуры воздуха на высоте 2 м над землей.
  • Tmax - Максимальная температура - максимум температуры воздуха на высоте 2 м над землей.
  • R - Количество осадков - Количество выпавших осадков за период времени, мм. При наведении курсора мыши на число - период времени, за который выпало указанное количество осадков.
  • R24 - Количество осадков - Количество выпавших осадков за 24 часа, мм.
  • S - Снежный покров - Высота снежного покрова, см. При наведении курсора мыши на число - состояние снежного покрова и степень покрытия местности в баллах.